Orbital Elements at Epoch 2459000.5 (2020-May-31.0) TDB
Reference: JPL 22 (heliocentric ecliptic J2000)
Element | Value | Uncertainty (1-sigma) | Units |
e | .133612340781032 | 3.5882e-08 | |
a | 2.428581545936825 | 8.2095e-09 | au |
q | 2.104093080806589 | 8.6446e-08 | au |
i | 2.087823099683555 | 4.7525e-06 | deg |
node | 123.2723916708464 | 9.5883e-05 | deg |
peri | 77.65929575177351 | 9.7452e-05 | deg |
M | 88.41190948637828 | 1.8349e-05 | deg |
tp | 2458661.003163002561 (2019-Jun-26.50316300) | 6.9974e-05 | TDB |
period | 1382.380066544185 3.78 | 7.0095e-06 1.919e-08 | d yr |
n | .2604204217874502 | 1.3205e-09 | deg/d |
Q | 2.753070011067062 | 9.3064e-09 | au |
|
| | Orbit Determination Parameters
Additional Information
|